Location: Dumpton Point
(51.3500°N, 1.4433°E)
Time: 08:55:50
(UTC+00:00)

Cosmos 1953 - Pass Details

Date: 09 April 2020
Orbit: 540 x 557 km, 82.5° (Epoch: 24 May)

Event Time Altitude Azimuth Distance (km) Brightness Sun altitude
Rises 19:33:50 0° 209° (SSW) 2,695 5.9 -8.5°
Reaches altitude 10° 19:36:05 10° 217° (SW) 1,810 5.1 -8.9°
Maximum altitude 19:39:49 38° 287° (WNW) 842 4.0 -9.4°
Drops below altitude 10° 19:43:37 10° 357° (N) 1,833 5.4 -9.9°
Sets 19:45:55 0° 5° (N) 2,736 6.2 -10.2°
